Dalaman Airport

Airport
ICAO code: 
LTBS
IATA Code: 
DLM
Summary
ICAO Region: 
EUR
Territory: 
Location: 
Dalaman,
Serving: 
Dalaman
Elevation: 
20 ft
Coordinates: 
Aerial View: 
36° 42' 45" N, 28° 47' 29" E
Airport RI: 
Runway Misidentification
Metar
Observation
LTBS 060220Z 16009KT 130V200 9999 BKN030 BKN080 18/13 Q1016 NOSIG
Station
Dalaman
Date/Time
2021-12-06 02:20:00
Wind direction
160°
Wind speed
09 kts
Lowest cloud amount
broken clouds
Temperature
18°C
Dew point
13°C
Humidity
72%
QNH
1016 hPa
Weather condition
n/a

Description

International airport serving south-west Turkey, located 3 nm south of the town of Dalaman and with high ground to the north, east, and west.

Climatology

Typical Mediterranean climate with hot dry summers and mild, wet winters (Köppen climate classification Csa).

Runways

Designator Length Width Surface Rops
1/19 3000 45 CON Yes/Yes
Airport map: 
Aerial View: 

SKYbrary Partners:

Safety knowledge contributed by: